Regional Weather Roundup
Issued by NWS

Home | Current Version | Previous Version | Graphics & Text | Print | Product List | Glossary Off
Versions: 1 2 3 4 5 6 7 8 9 10 11 12 13 14 15 16 17 18 19 20 21 22 23 24 25 26 27 28 29 30 31 32 33 34 35 36 37 38 39 40 41 42 43 44 45 46 47 48 49 50

000
ASUS43 KTOP 192308
RWRKS

WEATHER ROUNDUP FOR KANSAS
NATIONAL WEATHER SERVICE GOODLAND KS
500 PM CST SUN FEB 19 2017

NOTE:  "FAIR" INDICATES FEW OR NO CLOUDS BELOW 12,000 FEET WITH NO
SIGNIFICANT WEATHER AND/OR OBSTRUCTIONS TO VISIBILITY.

KSZ001>006-013>018-027>032-041>047-200000-
NORTHWEST KANSAS

CITY           SKY/WX    TMP DP  RH WIND       PRES   REMARKS
GOODLAND       CLOUDY    65  40  39 S18G26    29.66S
HAYS           MOSUNNY   66  51  58 SE20      29.74S
HILL CITY      SUNNY     74  48  39 S24G33    29.70R
RUSSELL        SUNNY     67  51  56 S21G31    29.75S
$$

KSZ061>065-074>080-084>089-200000-
SOUTHWEST KANSAS

CITY           SKY/WX    TMP DP  RH WIND       PRES   REMARKS
DODGE CITY     SUNNY     66  52  60 SE25G33   29.74R
ELKHART          N/A     62  34  35 S12         N/A
GARDEN CITY    SUNNY     73  45  36 S18G29    29.70S
GREAT BEND     PTSUNNY   61  53  75 S24G30    29.78R
LIBERAL        MOSUNNY   72  45  37 SW23      29.75R
PRATT          MOSUNNY   59  51  73 S17       29.80S
$$

KSZ066>073-081>083-090>101-200000-
SOUTHEAST KANSAS

CITY           SKY/WX    TMP DP  RH WIND       PRES   REMARKS
CHANUTE        SUNNY     70  56  61 S9        29.88F
COFFEYVILLE    MOSUNNY   71  57  61 S10       29.89S
HUTCHINSON     CLOUDY    61  54  77 S14       29.83S
MEDICINE LODGE   N/A     63  54  72 SE12G17   29.80S
NEWTON         CLOUDY    61  54  77 S17       29.85F
PARSONS        SUNNY     71  55  56 S12G17    29.89F
WICHITA INTL   PTSUNNY   64  55  72 SE10      29.83F
WICHITA JABRA  MOSUNNY   64  55  72 SE10      29.84F
WICHITA MCCONL MOSUNNY   65  54  67 S14       29.83F
WINFIELD       MOSUNNY   70  56  61 S13       29.84F
$$

KSZ007>012-019>026-033>040-048>060-102>105-200000-
NORTHEAST KANSAS

CITY           SKY/WX    TMP DP  RH WIND       PRES   REMARKS
CONCORDIA      SUNNY     62  52  69 SE16      29.79F
EMPORIA        SUNNY     63  54  72 S12       29.86F
LAWRENCE       SUNNY     71  57  61 S9        29.87F
MANHATTAN      SUNNY     64  53  67 SE12      29.83F
MARYSVILLE     CLOUDY    61  52  72 S17       29.82F
OLATHE IND     SUNNY     73  55  53 S16       29.88F
OLATHE EXE     SUNNY     73  56  54 S15       29.88S
SALINA         MOSUNNY   66  54  65 S20       29.81S
TOPEKA BILLARD SUNNY     65  55  70 S6        29.87F
TOPEKA FORBES  SUNNY     66  55  67 S10       29.87F
$$




USA.gov is the U.S. government's official web portal to all federal, state and local government web resources and services.